TimeCDT,TemperatureF,Dew PointF,Humidity,Sea Level PressureIn,VisibilityMPH,Wind Direction,Wind SpeedMPH,Gust SpeedMPH,PrecipitationIn,Events,Conditions,WindDirDegrees,DateUTC
12:54 AM,41.0,26.1,55,30.16,9.0,East,6.9,-,N/A,,Clear,90,2014-04-05 05:54:00
1:54 AM,39.9,26.1,58,30.16,8.0,ESE,6.9,-,N/A,,Clear,120,2014-04-05 06:54:00
2:54 AM,37.9,26.1,62,30.16,7.0,East,5.8,-,N/A,,Clear,90,2014-04-05 07:54:00
3:54 AM,37.0,27.0,67,30.16,6.0,ESE,5.8,-,N/A,,Haze,110,2014-04-05 08:54:00
4:54 AM,36.0,26.1,67,30.15,6.0,East,4.6,-,N/A,,Haze,90,2014-04-05 09:54:00
5:54 AM,35.1,26.1,70,30.14,6.0,East,5.8,-,N/A,,Haze,100,2014-04-05 10:54:00
6:54 AM,35.1,27.0,72,30.15,7.0,East,5.8,-,N/A,,Clear,100,2014-04-05 11:54:00
7:54 AM,37.0,28.0,70,30.16,6.0,ESE,5.8,-,N/A,,Haze,110,2014-04-05 12:54:00
8:54 AM,43.0,30.0,60,30.18,9.0,SE,11.5,-,N/A,,Clear,140,2014-04-05 13:54:00
9:54 AM,48.0,30.0,50,30.19,10.0,SE,15.0,-,N/A,,Clear,140,2014-04-05 14:54:00
10:54 AM,53.1,30.9,43,30.17,10.0,SSE,13.8,19.6,N/A,,Clear,150,2014-04-05 15:54:00
11:54 AM,57.0,30.9,37,30.14,9.0,SSE,15.0,-,N/A,,Clear,160,2014-04-05 16:54:00
12:54 PM,60.1,28.9,31,30.12,10.0,SSE,13.8,-,N/A,,Clear,160,2014-04-05 17:54:00
1:54 PM,62.1,28.9,29,30.09,10.0,SSE,12.7,17.3,N/A,,Clear,150,2014-04-05 18:54:00
2:54 PM,64.9,28.9,26,30.05,10.0,SSE,13.8,21.9,N/A,,Clear,150,2014-04-05 19:54:00
3:54 PM,64.9,27.0,24,30.01,10.0,SE,13.8,20.7,N/A,,Clear,130,2014-04-05 20:54:00
4:54 PM,64.9,24.1,21,29.99,10.0,SE,15.0,-,N/A,,Clear,140,2014-04-05 21:54:00
5:54 PM,64.0,27.0,25,29.98,8.0,SE,8.1,-,N/A,,Clear,130,2014-04-05 22:54:00
6:54 PM,62.1,26.1,25,29.98,6.0,SE,10.4,-,N/A,,Haze,130,2014-04-05 23:54:00
7:28 PM,61.0,27.0,27,29.98,2.5,ESE,9.2,-,N/A,,Haze,120,2014-04-06 00:28:00
7:45 PM,60.1,26.1,27,29.98,3.0,ESE,8.1,-,N/A,,Haze,120,2014-04-06 00:45:00
7:54 PM,59.0,27.0,29,29.99,3.0,ESE,6.9,-,N/A,,Haze,110,2014-04-06 00:54:00
8:54 PM,55.9,28.0,34,29.99,5.0,ESE,6.9,-,N/A,,Haze,110,2014-04-06 01:54:00
9:54 PM,55.9,28.0,34,30.01,4.0,ESE,5.8,-,N/A,,Haze,110,2014-04-06 02:54:00
10:54 PM,55.0,28.9,37,30.03,5.0,ESE,6.9,-,N/A,,Haze,110,2014-04-06 03:54:00
11:54 PM,52.0,30.0,43,30.04,4.0,SE,4.6,-,N/A,,Haze,140,2014-04-06 04:54:00